Snowfall_Accumulation
0.0 0.0 0.0 0.0 0.0 0.0 0.0 0.0 0.0 0.0 0.0 0.0 0.0 0.0 0.0 0.0 0.0 0.0 0.0 0.0 0.0 28.7 8.3 0.0 0.0 1.1 1.2 1.1 7.8 6.1 9.9 11.3 11.0 14.2 18.8 21.7 16.6 5.7 3.5 3.4 7.6 4.0 10.1 13.1 13.0 19.3 14.9 0.0 0.0 2.5 2.7 0.6 0.6 0.5
0.0 0.0 0.0 0.0 0.0 0.0 0.0 0.0 0.0 0.0 0.0 0.0 0.0 0.0 0.0 0.0 0.0 0.0 0.0 0.0 0.0 5.7 11.1 0.0 0.0 0.0 0.0 0.0 0.2 0.1 2.5 2.6 4.1 12.3 13.5 12.5 20.2 13.6 8.4 8.2 0.0 10.5 4.3 8.7 8.4 8.7 2.0 0.3 1.5 1.2 0.6 0.3 0.7 0.2
0.0 0.0 0.0 0.0 0.0 0.0 0.0 0.0 0.0 0.0 0.0 0.0 0.0 0.0 0.0 0.0 0.0 0.0 0.0 0.0 0.0 18.4 16.7 0.0 3.5 0.0 0.0 0.0 0.0 5.9 0.2 0.0 0.0 0.0 15.6 16.9 27.2 8.7 13.2 6.9 5.7 4.7 2.6 8.4 4.4 4.1 0.9 0.2 0.2 0.2 0.3 0.2 0.0 0.6
0.0 0.0 0.0 0.0 0.0 0.0 0.0 0.0 0.0 0.0 0.0 0.0 0.0 0.0 0.0 0.0 0.0 0.0 0.0 0.0 0.0 2.8 41.0 22.8 0.0 0.0 0.0 0.0 0.0 0.0 0.0 0.0 0.0 0.0 35.6 35.5 28.4 9.7 17.3 6.9 5.2 1.8 4.7 10.1 10.5 4.3 2.2 0.9 1.1 1.8 0.5 0.5 0.6 0.2
0.0 0.0 0.0 0.0 0.0 0.0 0.0 0.0 0.0 0.0 0.0 0.0 0.0 0.0 0.0 0.0 0.0 0.0 0.0 0.0 0.0 0.0 33.4 14.7 1.1 0.0 0.0 0.0 0.0 0.0 0.0 0.0 6.3 32.0 40.0 28.4 10.9 12.9 11.1 10.5 9.0 1.9 6.5 7.0 17.1 9.9 7.9 4.4 3.4 2.3 2.1 1.3 0.6 0.7
0.0 0.0 0.0 0.0 0.0 0.0 0.0 0.0 0.0 0.0 0.0 0.0 0.0 0.0 0.0 0.0 0.0 0.0 39.2 0.0 0.0 0.0 19.7 21.5 3.3 2.9 0.0 0.0 0.0 0.0 0.0 0.0 5.5 23.6 29.0 15.7 0.0 5.4 25.0 12.0 1.2 1.6 2.1 4.2 10.1 11.8 8.7 6.6 4.0 2.8 3.1 2.6 1.1 0.9
0.0 0.0 0.0 0.0 0.0 0.0 0.0 0.0 0.0 0.0 0.0 0.0 0.0 0.0 0.0 0.0 0.0 8.7 24.5 0.0 0.0 0.0 29.6 30.5 12.3 2.7 0.0 0.0 0.0 0.0 0.0 1.3 3.4 16.8 22.0 10.5 2.9 4.7 22.8 13.4 1.4 1.8 2.8 3.0 4.6 6.1 8.3 5.1 4.7 2.7 1.7 1.9 0.7 1.5
0.0 0.0 0.0 0.0 0.0 0.0 0.0 0.0 0.0 0.0 0.0 0.0 0.0 0.0 0.0 0.0 0.0 2.0 0.0 0.0 0.0 0.0 12.4 30.2 17.7 15.1 0.0 7.9 11.1 0.0 4.0 7.2 18.0 14.4 14.1 6.9 7.8 13.2 23.0 0.4 0.6 1.4 1.7 2.0 1.6 1.2 2.8 4.4 3.5 2.6 2.0 2.2 1.8 2.3
0.0 0.0 0.0 0.0 0.0 0.0 0.0 0.0 0.0 0.0 0.0 0.0 0.0 0.0 0.0 0.0 30.6 3.2 0.0 0.0 0.0 0.0 34.2 15.4 9.8 19.0 3.1 9.7 6.0 8.5 5.1 24.0 8.5 14.8 6.9 5.8 16.2 23.0 7.1 3.6 4.1 3.1 4.2 3.8 2.3 1.5 2.1 4.7 3.7 1.9 1.7 2.3 2.6 4.4
0.0 0.0 0.0 0.0 0.0 0.0 0.0 0.0 0.0 0.0 0.0 0.0 0.0 19.0 76.5 14.6 0.0 0.0 0.0 30.6 33.8 23.4 17.0 12.0 0.9 14.2 3.9 14.7 17.3 16.4 15.7 16.9 18.0 8.4 2.9 14.8 7.4 5.3 3.1 3.9 4.1 7.2 5.6 6.3 7.1 5.4 1.8 2.9 2.3 1.6 1.1 1.0 1.3 4.7
0.0 0.0 0.0 0.0 0.0 0.0 0.0 0.0 0.0 0.0 0.0 0.0 31.0 42.8 6.1 0.0 0.0 15.9 43.6 36.3 23.3 21.0 6.0 4.5 3.5 7.2 2.4 20.7 22.2 13.6 22.4 13.1 12.3 6.0 7.2 10.3 6.0 6.0 4.1 6.2 5.5 6.8 7.4 8.0 7.9 4.9 3.2 1.8 1.9 1.1 3.1 3.8 3.6 6.3
0.0 0.0 0.0 0.0 0.0 0.0 0.0 0.0 0.0 0.0 0.0 0.0 0.0 0.0 1.5 12.8 33.9 36.7 30.0 18.5 7.6 5.7 5.4 5.5 5.9 4.5 12.2 4.6 23.7 25.9 26.2 20.6 14.0 6.4 18.8 9.4 9.0 4.7 6.1 6.2 5.8 5.6 7.2 5.7 9.0 13.3 11.0 5.7 3.5 5.2 5.7 7.6 7.8 8.5
0.0 0.0 0.0 0.0 0.0 0.0 0.0 0.0 0.0 0.0 0.0 0.0 12.1 31.1 38.5 36.1 37.1 23.7 12.6 5.9 5.2 2.7 3.5 5.1 9.8 8.3 7.9 4.6 22.2 19.9 19.0 18.6 7.5 22.3 11.6 7.7 3.8 2.1 2.6 3.3 4.6 4.5 5.5 5.6 9.2 12.8 11.5 13.1 14.2 11.7 13.6 16.1 15.1 16.5
0.0 0.0 0.0 0.0 0.0 0.0 0.0 0.0 0.0 0.0 0.0 19.8 29.7 33.9 28.9 23.4 14.3 10.8 4.9 5.1 2.7 3.2 4.0 6.0 11.5 11.4 10.0 14.2 16.9 22.0 13.5 11.1 16.0 15.4 8.7 8.9 8.5 6.1 4.3 4.7 5.2 8.2 8.1 8.3 11.4 13.3 13.1 14.5 18.8 20.1 19.3 19.5 15.5 16.6
0.0 0.0 0.0 0.0 0.0 0.0 0.0 0.0 0.0 0.0 9.4 20.5 21.0 19.4 12.1 14.1 8.3 7.5 6.0 4.7 4.1 5.4 8.7 13.1 14.0 13.3 13.6 16.8 11.8 11.3 13.8 10.2 8.8 8.8 14.5 11.6 9.3 6.6 6.9 6.7 7.0 8.4 8.8 10.0 10.7 10.8 11.3 10.2 8.5 13.3 14.8 13.0 9.2 9.9
0.0 0.0 0.0 0.0 0.0 0.0 0.0 0.0 1.1 2.5 11.9 10.8 12.5 10.1 7.9 9.5 10.0 9.3 7.7 7.9 3.6 8.4 5.1 12.2 20.0 20.2 16.9 12.1 11.5 7.6 6.5 6.5 10.7 10.0 8.1 6.0 6.3 7.2 8.3 8.6 10.1 10.3 8.8 8.8 8.3 6.8 7.1 6.3 4.6 6.9 7.1 6.3 6.4 4.8
0.0 3.5 0.0 0.0 0.0 0.0 0.0 3.2 8.7 14.3 13.0 10.4 10.1 8.6 7.6 8.6 11.1 9.7 8.8 7.8 4.2 10.7 13.7 11.4 11.7 11.8 10.8 8.6 9.0 8.0 10.4 11.3 10.9 9.2 5.8 5.1 6.4 8.1 9.0 9.3 10.3 9.4 7.3 6.3 5.9 5.5 5.8 5.4 4.3 3.2 4.3 6.2 4.7 4.6
1.6 0.0 0.0 0.0 0.0 0.0 6.0 9.5 11.7 13.4 11.1 8.7 9.2 10.4 7.9 11.3 11.1 8.8 8.3 6.7 10.3 10.1 6.4 13.3 5.0 6.4 5.6 5.7 7.0 11.9 10.5 9.2 6.8 6.9 8.3 8.9 8.6 8.6 8.9 9.1 9.6 8.1 6.9 7.1 6.4 6.1 6.2 5.9 4.6 5.6 5.2 5.2 3.9 4.0
1.0 0.0 0.0 1.0 3.4 12.0 14.3 12.3 6.3 12.3 10.9 8.0 8.1 6.6 5.9 7.5 7.7 8.7 7.3 6.3 9.7 8.7 8.3 10.0 9.7 7.1 8.7 9.8 10.0 9.4 9.3 7.3 8.4 9.4 10.2 10.1 9.5 9.0 10.0 9.2 9.0 8.6 7.7 8.1 6.6 6.1 6.4 6.0 5.3 5.0 4.7 4.1 3.9 3.9
0.0 0.0 0.0 0.0 5.2 11.0 14.6 14.7 3.0 2.1 7.3 8.4 7.0 4.8 3.8 5.7 4.6 3.1 2.5 4.1 6.4 15.5 18.7 13.5 12.3 13.3 12.9 12.4 11.4 10.2 10.2 8.6 6.8 6.1 8.9 10.6 11.4 8.7 9.1 7.6 7.7 7.5 6.2 6.3 6.2 5.6 4.6 4.1 4.2 3.9 3.3 2.5 3.0 3.0
0.1 0.2 0.3 1.1 4.7 5.5 5.5 8.5 7.9 2.4 3.6 3.9 3.9 2.8 4.6 2.2 2.3 2.3 2.2 3.1 11.1 15.5 16.5 15.3 14.1 14.4 14.4 13.4 10.3 8.6 8.5 6.6 7.4 5.6 6.9 9.3 10.2 6.5 7.5 7.7 6.7 5.9 5.2 5.7 5.2 5.5 4.2 4.0 3.2 2.7 3.3 3.7 3.0 3.7
1.2 0.1 5.1 2.8 6.2 5.4 3.9 0.0 1.7 5.3 3.0 2.7 1.7 2.0 3.5 4.3 3.1 3.0 2.0 3.9 9.2 11.5 11.8 11.7 11.5 10.3 9.0 10.0 10.7 9.0 9.5 6.1 5.3 4.9 5.6 4.8 6.8 7.1 7.7 8.3 6.3 6.2 5.8 5.7 4.3 3.7 3.1 2.7 2.4 2.4 2.7 3.2 3.2 3.9
0.6 5.2 9.4 9.3 11.5 5.2 1.1 0.2 0.8 1.6 4.8 2.3 1.7 2.5 2.3 3.7 3.2 1.2 4.2 3.0 7.7 10.0 7.7 6.9 8.0 6.5 7.0 8.6 6.1 6.5 7.4 5.8 5.8 6.0 6.1 6.0 5.8 5.9 5.3 5.7 5.0 4.0 3.9 4.1 3.1 3.3 3.5 2.9 2.6 3.0 2.9 2.6 4.1 3.8
1.2 11.7 13.2 9.1 4.8 4.4 1.6 1.8 0.8 0.5 1.1 1.8 4.2 3.4 1.0 1.8 0.2 1.5 2.9 4.9 7.9 5.4 4.5 6.1 5.2 5.4 3.9 3.7 4.9 5.8 7.3 5.2 4.6 4.8 5.2 3.2 2.8 3.3 2.4 2.9 3.0 3.2 3.7 3.3 2.8 3.3 3.2 3.9 3.9 3.4 3.1 3.6 4.0 3.5
12.1 6.8 6.1 4.8 3.0 2.5 0.8 1.0 1.0 0.7 0.5 0.3 2.5 3.9 4.4 2.1 5.0 3.5 2.1 5.6 5.3 4.8 4.6 4.1 2.3 2.2 3.4 4.9 5.5 5.3 3.9 2.7 2.6 2.8 3.5 2.4 2.4 2.6 2.3 2.3 2.4 2.7 2.6 2.5 2.7 3.4 3.9 3.4 3.7 3.3 3.1 3.4 3.8 3.6
7.3 2.0 2.1 1.4 1.3 1.0 0.6 0.7 0.9 0.8 0.2 0.6 1.6 0.9 2.5 3.6 3.6 3.3 3.4 6.1 5.1 4.6 5.3 4.7 4.4 2.4 2.7 2.3 3.2 2.7 2.4 1.8 1.5 2.0 2.4 1.7 2.0 2.9 3.0 2.7 2.6 2.8 2.0 3.1 4.3 4.2 3.6 2.8 3.6 2.7 3.5 3.0 4.1 4.3
3.9 2.0 0.6 0.0 1.6 2.4 2.0 1.2 1.2 1.8 2.3 2.3 2.2 1.6 3.4 4.8 3.4 4.4 5.0 4.3 4.5 4.3 2.8 4.4 2.2 2.5 2.7 2.6 2.7 2.1 0.9 0.6 0.8 1.8 2.2 1.8 1.7 1.9 2.3 4.1 4.0 4.0 2.6 3.0 3.4 3.6 3.6 3.5 4.2 3.7 3.6 4.0 3.7 4.1
1.1 0.9 1.0 1.6 2.3 2.5 3.9 3.2 3.1 2.9 2.9 2.5 3.0 3.3 3.9 3.6 4.7 4.8 4.4 3.9 3.2 1.8 1.2 1.0 1.0 1.2 1.4 1.6 1.6 1.5 1.3 1.1 1.2 1.5 1.6 1.6 1.5 2.2 2.5 2.2 2.2 1.7 1.8 2.3 2.5 2.4 2.9 3.3 4.6 4.9 5.1 4.3 4.2 3.8
1.3 1.3 0.8 1.5 1.4 1.2 2.1 2.7 3.0 3.1 2.2 2.4 2.9 2.6 2.5 2.8 5.7 5.4 4.5 3.3 2.4 1.6 1.6 1.6 2.3 1.3 1.2 2.1 1.2 1.1 1.5 1.8 2.7 3.0 3.5 4.6 3.9 3.4 2.0 1.7 1.6 1.6 1.4 1.7 1.6 1.9 2.5 2.9 3.4 3.9 5.1 5.3 5.5 5.6
0.5 0.5 1.4 1.0 1.3 1.1 3.1 1.8 1.9 1.5 0.8 1.3 2.2 1.1 1.6 4.7 6.9 4.9 4.0 3.0 2.7 3.1 3.8 2.9 2.7 1.6 2.2 1.1 2.6 1.9 2.1 2.2 2.6 3.4 4.2 3.9 3.6 2.9 1.7 1.5 1.2 1.3 1.3 1.5 1.7 2.2 2.8 2.2 3.0 3.1 3.7 4.1 5.3 6.1
0.9 1.5 1.7 1.5 2.4 3.6 3.3 2.1 1.8 1.3 1.7 1.6 1.8 1.9 3.0 4.4 5.7 3.7 3.5 4.4 2.8 2.2 1.9 2.0 2.2 2.5 2.6 2.5 3.2 3.0 4.6 3.2 2.7 2.9 3.3 3.6 2.7 1.9 1.6 1.2 1.3 1.3 1.3 1.2 1.4 1.6 2.0 2.2 2.9 3.2 3.4 3.6 4.1 4.9
1.7 3.3 3.4 2.7 4.1 2.7 2.7 3.8 2.6 3.9 3.2 2.8 3.1 1.6 2.9 3.1 2.5 4.4 3.2 3.2 3.4 3.1 2.7 2.9 3.0 3.8 3.7 4.6 4.5 4.4 4.5 3.9 2.4 2.1 2.0 1.9 2.0 1.7 1.4 1.0 1.2 1.4 1.5 1.3 1.6 1.5 1.5 2.1 2.7 2.8 2.9 2.5 2.8 2.7
2.7 2.9 3.1 3.7 4.3 3.6 3.0 4.1 3.2 3.7 3.5 3.3 3.6 3.9 3.8 2.8 3.4 5.3 2.9 3.3 6.1 6.1 4.8 4.6 4.9 4.7 4.7 3.9 3.2 3.7 3.7 3.5 3.2 2.5 1.8 1.3 1.0 0.8 0.7 1.1 1.1 1.4 1.5 1.6 1.7 1.6 1.7 1.6 1.8 1.7 1.5 1.5 1.5 1.3